EN

Hourly Weather Aliseda

Today, 16 January, Saturday

Time Temperature Precipitation Wind Pressure Humidity
00:00 +2°C° 0 mm 1 mps 731 mmHg 90%
01:00 +1°C° 0 mm 1 mps 731 mmHg 90%
02:00 +1°C° 0 mm 1 mps 730 mmHg 90%
03:00 0°C° 0 mm 1 mps 730 mmHg 90%
04:00 0°C° 0 mm 1 mps 730 mmHg 89%
05:00 0°C° 0 mm 1 mps 730 mmHg 89%
06:00 -1°C° 0 mm 0 mps 730 mmHg 87%
07:00 +1°C° 0 mm 1 mps 731 mmHg 83%
08:00 +2°C° 0 mm 1 mps 731 mmHg 78%
09:00 +3°C° 0 mm 1 mps 731 mmHg 73%
10:00 +5°C° 0 mm 1 mps 731 mmHg 64%
11:00 +8°C° 0 mm 1 mps 732 mmHg 56%
12:00 +10°C° 0 mm 1 mps 732 mmHg 48%
13:00 +11°C° 0 mm 1 mps 731 mmHg 48%
14:00 +12°C° 0 mm 1 mps 731 mmHg 47%
15:00 +12°C° 0 mm 0 mps 730 mmHg 47%
16:00 +9°C° 0 mm 0 mps 730 mmHg 56%
17:00 +7°C° 0 mm 0 mps 730 mmHg 65%
18:00 +4°C° 0 mm 0 mps 730 mmHg 73%
19:00 +4°C° 0 mm 0 mps 730 mmHg 73%
20:00 +3°C° 0 mm 0 mps 731 mmHg 74%
21:00 +3°C° 0 mm 0 mps 731 mmHg 74%
22:00 +2°C° 0 mm 0 mps 731 mmHg 74%
23:00 +2°C° 0 mm 0 mps 732 mmHg 74%

Tomorrow, 17 January, Sunday

Time Temperature Precipitation Wind Pressure Humidity
00:00 +2°C° 0 mm 0 mps 732 mmHg 75%
01:00 +2°C° 0 mm 1 mps 731 mmHg 76%
02:00 +2°C° 0 mm 1 mps 731 mmHg 77%
03:00 +2°C° 0 mm 1 mps 731 mmHg 79%
04:00 +2°C° 0 mm 1 mps 731 mmHg 80%
05:00 +1°C° 0 mm 1 mps 731 mmHg 82%
06:00 +1°C° 0 mm 1 mps 731 mmHg 84%
07:00 +2°C° 0 mm 1 mps 731 mmHg 81%
08:00 +3°C° 0 mm 1 mps 731 mmHg 78%
09:00 +3°C° 0 mm 1 mps 731 mmHg 75%
10:00 +6°C° 0 mm 1 mps 732 mmHg 67%
11:00 +8°C° 0 mm 1 mps 732 mmHg 59%
12:00 +11°C° 0 mm 1 mps 732 mmHg 51%
13:00 +11°C° 0 mm 1 mps 731 mmHg 50%
14:00 +12°C° 0 mm 1 mps 731 mmHg 50%
15:00 +12°C° 0 mm 0 mps 730 mmHg 49%
16:00 +10°C° 0 mm 1 mps 730 mmHg 57%
17:00 +8°C° 0 mm 1 mps 730 mmHg 65%
18:00 +5°C° 0 mm 1 mps 730 mmHg 73%
19:00 +5°C° 0 mm 1 mps 730 mmHg 73%
20:00 +4°C° 0 mm 1 mps 730 mmHg 74%
21:00 +3°C° 0 mm 1 mps 730 mmHg 74%
22:00 +3°C° 0 mm 1 mps 730 mmHg 75%
23:00 +3°C° 0 mm 1 mps 730 mmHg 76%

Day after tomorrow, 18 January, Monday

Time Temperature Precipitation Wind Pressure Humidity
00:00 +2°C° 0 mm 1 mps 730 mmHg 76%
01:00 +2°C° 0 mm 1 mps 730 mmHg 78%
02:00 +2°C° 0 mm 1 mps 730 mmHg 80%
03:00 +1°C° 0 mm 1 mps 730 mmHg 82%
04:00 +1°C° 0 mm 1 mps 729 mmHg 83%
05:00 +1°C° 0 mm 1 mps 729 mmHg 85%
06:00 0°C° 0 mm 1 mps 729 mmHg 86%
07:00 +1°C° 0 mm 1 mps 729 mmHg 82%
08:00 +2°C° 0 mm 1 mps 730 mmHg 79%
09:00 +3°C° 0 mm 1 mps 730 mmHg 75%
10:00 +6°C° 0 mm 1 mps 730 mmHg 69%
11:00 +8°C° 0 mm 1 mps 730 mmHg 62%
12:00 +11°C° 0 mm 1 mps 730 mmHg 55%
13:00 +12°C° 0 mm 1 mps 730 mmHg 54%
14:00 +13°C° 0 mm 1 mps 729 mmHg 54%
15:00 +13°C° 0 mm 1 mps 729 mmHg 53%
16:00 +10°C° 0 mm 0 mps 729 mmHg 62%
17:00 +8°C° 0 mm 0 mps 729 mmHg 71%
18:00 +5°C° 0 mm 0 mps 728 mmHg 81%
19:00 +5°C° 0 mm 0 mps 729 mmHg 82%
20:00 +4°C° 0 mm 0 mps 729 mmHg 83%
21:00 +3°C° 0 mm 0 mps 729 mmHg 85%
22:00 +4°C° 0 mm 1 mps 729 mmHg 86%
23:00 +4°C° 0 mm 1 mps 729 mmHg 86%

19 January, Tuesday

Time Temperature Precipitation Wind Pressure Humidity
00:00 +3°C° 0 mm 1 mps 729 mmHg 87%
01:00 +3°C° 0 mm 1 mps 729 mmHg 87%
02:00 +3°C° 0 mm 1 mps 728 mmHg 88%
03:00 +2°C° 0 mm 1 mps 728 mmHg 88%
04:00 +2°C° 0 mm 1 mps 728 mmHg 89%
05:00 +2°C° 0 mm 1 mps 727 mmHg 90%
06:00 +2°C° 0 mm 1 mps 727 mmHg 90%
07:00 +3°C° 0 mm 1 mps 727 mmHg 88%
08:00 +3°C° 0 mm 1 mps 727 mmHg 86%
09:00 +4°C° 0 mm 1 mps 728 mmHg 84%
10:00 +5°C° 0 mm 2 mps 728 mmHg 81%
11:00 +7°C° 0 mm 2 mps 727 mmHg 78%
12:00 +9°C° 0 mm 2 mps 727 mmHg 75%
13:00 +10°C° 0 mm 3 mps 727 mmHg 74%
14:00 +10°C° 0 mm 3 mps 726 mmHg 74%
15:00 +11°C° 0 mm 3 mps 725 mmHg 74%
16:00 +10°C° 0 mm 3 mps 725 mmHg 78%
17:00 +9°C° 0 mm 3 mps 725 mmHg 82%
18:00 +8°C° 0 mm 2 mps 725 mmHg 87%
19:00 +8°C° 0 mm 3 mps 724 mmHg 87%
20:00 +8°C° 0 mm 3 mps 724 mmHg 87%
21:00 +7°C° 0 mm 4 mps 724 mmHg 87%
22:00 +7°C° 0 mm 4 mps 723 mmHg 88%
23:00 +7°C° 0 mm 4 mps 723 mmHg 88%

20 January, Wednesday

Time Temperature Precipitation Wind Pressure Humidity
00:00 +7°C° 0 mm 4 mps 722 mmHg 88%
01:00 +7°C° 0.1 mm 5 mps 721 mmHg 88%
02:00 +7°C° 0.1 mm 6 mps 720 mmHg 87%
03:00 +7°C° 0.1 mm 6 mps 719 mmHg 87%
04:00 +8°C° 1.7 mm 7 mps 719 mmHg 89%
05:00 +8°C° 1.7 mm 7 mps 718 mmHg 92%
06:00 +7°C° 1.7 mm 8 mps 717 mmHg 94%
07:00 +7°C° 3.2 mm 8 mps 717 mmHg 94%
08:00 +8°C° 3.2 mm 7 mps 717 mmHg 95%
09:00 +9°C° 3.2 mm 7 mps 716 mmHg 95%
10:00 +10°C° 0.9 mm 7 mps 716 mmHg 90%
11:00 +10°C° 0.9 mm 6 mps 716 mmHg 86%
12:00 +11°C° 0.9 mm 6 mps 716 mmHg 81%
13:00 +11°C° 0.3 mm 6 mps 716 mmHg 83%
14:00 +11°C° 0.3 mm 6 mps 716 mmHg 85%
15:00 +10°C° 0.3 mm 6 mps 716 mmHg 87%
16:00 +10°C° 0.5 mm 5 mps 717 mmHg 89%
17:00 +9°C° 0.5 mm 5 mps 717 mmHg 92%
18:00 +10°C° 0.5 mm 4 mps 717 mmHg 94%
19:00 +8°C° 0.1 mm 4 mps 718 mmHg 94%
20:00 +8°C° 0.1 mm 4 mps 719 mmHg 95%
21:00 +8°C° 0.1 mm 4 mps 720 mmHg 95%
22:00 +8°C° 0 mm 4 mps 720 mmHg 95%
23:00 +8°C° 0 mm 4 mps 721 mmHg 95%

21 January, Thursday

Time Temperature Precipitation Wind Pressure Humidity
00:00 +8°C° 0 mm 4 mps 721 mmHg 95%
01:00 +8°C° 0 mm 4 mps 721 mmHg 95%
02:00 +9°C° 0 mm 3 mps 721 mmHg 95%
03:00 +9°C° 0 mm 3 mps 722 mmHg 96%
04:00 +9°C° 0 mm 3 mps 722 mmHg 96%
05:00 +9°C° 0 mm 3 mps 722 mmHg 96%
06:00 +8°C° 0 mm 4 mps 722 mmHg 95%
07:00 +8°C° 0 mm 4 mps 722 mmHg 95%
08:00 +8°C° 0 mm 4 mps 722 mmHg 94%
09:00 +8°C° 0 mm 5 mps 722 mmHg 94%
10:00 +9°C° 0.1 mm 5 mps 722 mmHg 92%
11:00 +10°C° 0.1 mm 6 mps 722 mmHg 89%
12:00 +10°C° 0.1 mm 7 mps 722 mmHg 87%
13:00 +10°C° 0.2 mm 7 mps 722 mmHg 86%
14:00 +10°C° 0.2 mm 7 mps 721 mmHg 85%
15:00 +10°C° 0.2 mm 7 mps 720 mmHg 84%
16:00 +10°C° 0.3 mm 7 mps 720 mmHg 87%
17:00 +10°C° 0.3 mm 6 mps 720 mmHg 90%
18:00 +9°C° 0.3 mm 6 mps 721 mmHg 93%
19:00 +10°C° 0.2 mm 5 mps 721 mmHg 93%
20:00 +10°C° 0.2 mm 5 mps 721 mmHg 94%
21:00 +11°C° 0.2 mm 4 mps 722 mmHg 94%
22:00 +10°C° 0 mm 4 mps 722 mmHg 94%
23:00 +8°C° 0 mm 4 mps 722 mmHg 95%
Show more